Location: Cuiry
(49.3858°N, 3.7708°E)
Time: 22:45:04
(UTC+00:00)

USA 267 - Pass Details

Date: 12 January 2026
Orbit: 1101 x 1107 km, 123.0° (Epoch: 10 January)

Event Time Altitude Azimuth Distance (km) Brightness Sun altitude
Exits shadow 16:58:51 - 91° (E) 3,368 5.3 -7.8°
Reaches altitude 10° 16:59:56 10° 89° (E) 2,963 5.0 -8.0°
Maximum altitude 17:06:14 53° 15° (NNE) 1,328 3.5 -8.9°
Drops below altitude 10° 17:12:33 10° 301° (WNW) 2,964 6.1 -9.9°
Sets 17:15:05 0° 297° (WNW) 3,923 6.8 -10.3°
